Ketchikan, AK

10:00 PM AKDT on October 15, 2018 (GMT -0800)
Ketchikan International

Weather History for PAKT - May, 2018

Change the Weather History Date:

Friday, May 25, 2018

  Actual Average Record
Temperature  
Mean Temperature 48 °F -  
Max Temperature 54 °F 57 °F 77 °F (1953)
Min Temperature 46 °F 42 °F 36 °F (1964)
Degree Days  
Heating Degree Days 17    
Moisture  
Dew Point 39 °F    
Average Humidity 71    
Maximum Humidity 100    
Minimum Humidity 50    
Precipitation  
Precipitation 0.23 in - - ()
Sea Level Pressure  
Sea Level Pressure 29.94 in    
Wind  
Wind Speed 9 mph (SE)    
Max Wind Speed 15 mph    
Max Gust Speed 23 mph    
Visibility 7 miles    
Events Rain    
Averages and records for this station are not official NWS values.
T = Trace of Precipitation, MM = Missing Value Source: NWS Daily Summary

Daily Weather History Graph

Daily Weather History Graph

Search for Another Location

Airport or City:

Astronomy

May. 25, 2018 Rise Set
Actual Time 4:21 AM AKDT 9:07 PM AKDT
Civil Twilight 3:28 AM AKDT 10:00 PM AKDT
Nautical Twilight 1:59 AM AKDT 11:32 PM AKDT
Astronomical Twilight Sun does not rise Sun does not rise
Moon 4:30 PM AKDT (5/25) 3:28 AM AKDT (5/25)
Length of Visible Light 18h 31m
Length of Day
16h 46m
Waxing Gibbous, 86% of the Moon is Illuminated
May 25
Waxing Gibbous
May 29
Full
Jun 6
Last Quarter
Jun 13
New
Jun 20
First Quarter

Hourly Weather History & Observations

Time (AKDT) Temp. Windchill Dew Point Humidity Pressure Visibility Wind Dir Wind Speed Gust Speed Precip Events Conditions
12:53 AM 50.0 °F - 32.0 °F 50% 29.98 in 10.0 mi SE 12.7 mph - N/A   Overcast
1:30 AM 50.0 °F - 32.0 °F 50% 29.97 in 10.0 mi SSE 11.5 mph - N/A   Overcast
1:53 AM 50.0 °F - 32.0 °F 50% 29.97 in 8.0 mi SE 13.8 mph 23.0 mph 0.00 in Rain Light Rain
2:13 AM 50.0 °F - 32.0 °F 50% 29.96 in 10.0 mi SE 15.0 mph - 0.01 in Rain Light Rain
2:53 AM 48.9 °F - 32.0 °F 52% 29.96 in 10.0 mi SE 13.8 mph - 0.01 in Rain Light Rain
3:21 AM 48.0 °F - 32.0 °F 54% 29.96 in 5.0 mi SSE 9.2 mph - 0.02 in Rain Light Rain
3:29 AM 48.0 °F - 32.0 °F 54% 29.95 in 7.0 mi SE 8.1 mph - 0.03 in Rain Light Rain
3:53 AM 46.9 °F - 32.0 °F 56% 29.96 in 9.0 mi SE 6.9 mph - 0.03 in Rain Light Rain
4:53 AM 46.9 °F - 32.0 °F 56% 29.95 in 4.0 mi SSE 5.8 mph - 0.04 in Rain Light Rain
5:24 AM 46.9 °F - 32.0 °F 56% 29.94 in 4.0 mi SSE 5.8 mph - 0.04 in Rain Light Rain
5:33 AM 46.9 °F - 32.0 °F 56% 29.94 in 4.0 mi SSE 6.9 mph - 0.05 in Rain Light Rain
5:53 AM 46.9 °F - 32.0 °F 56% 29.94 in 4.0 mi SSE 6.9 mph - 0.07 in Rain Light Rain
6:06 AM 46.9 °F - 32.0 °F 56% 29.94 in 4.0 mi SSE 4.6 mph - 0.01 in Rain Light Rain
6:07 AM 46.4 °F 44.3 °F 32.0 °F 57% 29.94 in 4.0 mi SSE 4.6 mph - N/A Rain Light Rain
6:53 AM 46.4 °F 45.2 °F 32.0 °F 57% 29.94 in 10.0 mi Variable 3.5 mph - N/A Rain Light Rain
7:53 AM 48.0 °F - 32.0 °F 54% 29.93 in 6.0 mi SSE 8.1 mph - 0.02 in Rain Light Rain
8:53 AM 48.2 °F - 32.0 °F 54% 29.93 in 8.0 mi SE 10.4 mph - N/A Rain Light Rain
9:53 AM 48.2 °F - 44.6 °F 87% 29.94 in 9.0 mi SSE 9.2 mph - N/A Rain Light Rain
10:53 AM 48.2 °F - 44.6 °F 87% 29.94 in 7.0 mi SE 11.5 mph - N/A Rain Light Rain
11:53 AM 48.2 °F - 44.6 °F 87% 29.94 in 6.0 mi SE 10.4 mph - N/A Rain Light Rain
12:53 PM 48.2 °F - 48.2 °F 100% 29.95 in 3.0 mi SE 11.5 mph - N/A Rain Light Rain
1:53 PM 50.0 °F - 44.6 °F 82% 29.94 in 9.0 mi SE 11.5 mph - N/A Rain Light Rain
2:53 PM 50.0 °F - 42.8 °F 76% 29.94 in 10.0 mi ESE 13.8 mph - N/A Rain Light Rain
3:53 PM 50.0 °F - 44.6 °F 82% 29.93 in 10.0 mi SSE 4.6 mph - N/A Rain Light Rain
4:53 PM 50.0 °F - 44.6 °F 82% 29.93 in 10.0 mi Calm Calm - N/A Rain Light Rain
5:53 PM 48.2 °F - 44.6 °F 87% 29.92 in 6.0 mi Calm Calm - N/A Rain Light Rain
6:53 PM 48.2 °F - 44.6 °F 87% 29.91 in 8.0 mi Calm Calm - N/A   Overcast
7:53 PM 48.9 °F - 46.0 °F 90% 29.91 in 10.0 mi South 3.5 mph - N/A   Overcast
8:53 PM 48.9 °F - 46.0 °F 90% 29.90 in 4.0 mi SSE 8.1 mph - 0.01 in Rain Light Rain
9:53 PM 48.9 °F - 46.0 °F 90% 29.90 in 9.0 mi SE 9.2 mph - 0.02 in Rain Light Rain
10:38 PM 48.9 °F - 46.0 °F 90% 29.90 in 3.0 mi SE 9.2 mph - 0.02 in Rain Light Rain
10:53 PM 48.9 °F - 46.0 °F 90% 29.91 in 6.0 mi South 5.8 mph - 0.02 in   Overcast
11:00 PM 48.9 °F - 46.0 °F 90% 29.91 in 9.0 mi SSE 4.6 mph - N/A   Overcast
11:39 PM 46.9 °F - 44.1 °F 90% 29.93 in 9.0 mi SE 10.4 mph - 0.00 in   Overcast
11:53 PM 46.9 °F - 43.0 °F 86% 29.94 in 10.0 mi SE 12.7 mph - 0.01 in   Overcast